Wind_Speed
16 15 13 12 12 12 12 11 10 10 10 12 12 12 14 14 12 10 3 5 2 3 5 5 4 5 3 4 5 4 2 3 3 4 3 4 4 3 3 7 4 10 7 6 7 8 11 11 9 7 3 4 1 4
17 16 15 15 14 12 13 13 12 12 11 11 11 11 11 12 11 9 2 6 5 6 4 5 12 13 10 7 4 6 2 1 3 4 3 3 4 3 6 5 8 6 10 4 10 7 3 14 11 11 3 4 5 9
16 16 15 15 15 14 12 16 14 13 12 11 12 11 10 10 10 7 4 8 4 3 6 4 6 9 16 17 9 5 5 4 4 1 3 3 6 5 6 10 14 10 13 6 6 10 17 17 16 14 11 10 9 8
14 13 15 15 14 15 13 14 15 13 13 13 13 12 12 10 9 9 3 6 2 4 4 3 3 2 5 8 13 13 7 2 1 2 4 5 6 5 6 10 13 11 3 11 17 21 20 21 18 17 15 7 7 8
17 17 16 15 13 14 14 14 14 13 14 13 13 13 13 11 10 10 12 11 9 2 3 5 5 2 5 4 6 7 10 7 4 3 4 4 4 4 8 9 15 15 16 12 9 10 13 12 1 5 6 8 9 8
13 14 14 16 15 13 13 14 15 15 14 14 13 14 13 11 8 6 2 1 6 9 2 4 2 2 2 3 5 7 7 5 4 3 3 4 1 3 4 5 9 10 15 19 18 15 9 10 7 7 10 10 8 6
13 13 12 14 14 13 13 15 17 16 15 14 14 14 14 13 9 5 2 2 5 9 1 4 3 2 4 4 4 3 3 2 2 2 4 4 3 3 4 10 11 7 12 14 15 13 14 11 8 3 6 6 7 10
13 11 11 12 13 15 14 14 11 12 13 13 14 14 14 10 7 8 13 16 7 2 2 3 4 2 8 3 3 3 3 3 4 3 1 3 2 3 7 24 14 16 11 13 13 12 13 7 2 6 7 8 10 10
13 13 13 11 12 13 12 12 11 10 11 13 14 10 7 4 4 3 4 7 18 6 3 3 3 3 3 3 2 3 3 3 2 4 4 5 5 9 17 16 15 11 9 7 5 9 8 9 9 7 8 8 9 8
16 16 15 12 11 11 12 11 10 10 10 7 9 3 2 3 4 3 1 2 3 3 3 4 3 3 4 3 3 3 3 3 3 4 2 4 8 23 22 16 12 10 8 7 3 3 5 5 6 7 7 6 6 5
18 17 16 15 11 10 10 9 5 4 6 4 3 1 3 7 1 3 3 4 4 4 4 4 6 8 6 4 4 4 2 3 3 4 4 4 5 6 8 11 13 19 15 12 10 3 2 4 4 4 6 5 4 6
18 18 16 16 12 11 10 7 5 8 3 2 4 5 4 1 2 4 4 3 4 5 4 3 3 5 3 2 4 3 3 1 5 3 3 4 7 7 9 11 5 7 12 12 10 7 6 5 6 6 5 4 6 9
18 18 16 16 14 13 11 9 8 6 5 4 2 2 3 4 7 7 9 4 4 4 4 4 3 4 2 3 3 3 5 6 1 3 5 7 5 7 6 3 2 1 5 6 7 7 7 7 7 8 6 9 8 9
20 20 19 18 16 15 14 11 8 9 6 3 4 5 7 7 6 6 6 4 2 2 5 4 3 2 1 4 2 3 2 2 3 5 8 4 5 7 8 4 4 5 6 5 6 5 6 6 6 9 10 9 9 9
23 21 21 19 17 16 15 14 13 16 8 4 4 7 11 8 1 1 2 2 3 5 6 3 1 2 2 3 3 2 3 5 6 6 3 3 4 6 7 4 6 5 5 6 5 7 7 9 7 7 11 11 11 10
23 21 24 21 18 17 17 17 14 13 5 5 6 7 4 2 4 4 4 3 5 6 2 0 3 3 6 4 6 9 4 7 5 4 4 4 6 5 6 6 7 6 6 5 5 7 9 10 9 9 10 12 13 14
23 16 15 16 17 17 18 13 8 7 5 5 7 8 12 8 7 5 6 4 11 6 4 3 5 11 2 3 4 5 7 6 6 4 4 5 8 9 7 5 7 5 7 7 7 10 10 11 10 8 7 12 16 17
26 18 21 22 17 13 9 12 5 6 10 8 7 11 8 11 14 13 9 6 6 6 5 5 1 6 6 6 5 6 8 9 7 8 9 9 8 7 6 10 7 9 8 11 14 13 13 12 8 8 12 13 14 16
31 25 25 20 20 11 4 5 9 5 8 7 13 11 10 8 9 9 8 7 13 5 2 3 7 6 12 13 16 17 15 13 11 12 5 8 10 9 11 11 14 11 12 14 11 10 12 16 16 13 13 15 11 14
34 30 27 26 24 9 6 4 7 5 10 12 7 9 10 12 10 11 10 7 9 4 6 6 12 15 14 14 13 14 15 14 12 12 13 12 12 10 8 11 8 15 12 12 12 13 11 10 15 20 21 19 14 14
29 31 29 28 14 19 4 3 5 4 3 8 9 8 11 4 8 12 10 7 9 5 9 13 17 19 24 21 25 16 16 16 16 13 15 14 13 14 9 14 17 15 8 7 8 9 17 9 20 20 21 21 23 23
16 21 16 21 8 6 5 9 3 1 3 3 2 3 8 12 12 9 3 7 6 10 11 16 18 18 19 20 20 30 29 32 29 22 23 20 13 14 13 12 8 11 10 10 12 11 14 19 19 21 22 23 21 21
19 16 9 11 7 7 4 11 6 6 6 5 3 5 6 8 6 5 4 5 7 12 15 15 22 28 19 32 33 33 33 23 13 13 14 13 20 25 20 20 21 10 10 13 20 21 21 22 23 24 23 18 18 19
15 7 7 5 10 6 5 7 4 5 6 11 9 18 16 11 5 5 8 13 13 15 14 19 13 15 15 18 16 17 19 20 14 19 27 14 12 14 21 21 22 20 22 24 22 20 19 18 20 19 18 16 16 15
6 8 6 7 6 7 6 6 6 8 12 13 19 12 5 2 6 8 13 15 17 15 13 12 12 13 14 15 14 15 28 17 11 14 15 18 17 17 12 17 20 21 22 16 13 16 20 20 16 16 15 15 14 15
9 11 6 10 5 6 7 9 9 14 10 8 8 4 5 5 6 7 11 15 13 14 13 10 11 11 11 13 14 12 13 17 18 10 14 20 18 11 10 10 9 12 21 21 17 19 18 14 14 15 14 17 19 16
7 8 5 5 5 4 5 5 6 6 7 8 5 7 5 5 7 10 13 5 10 9 17 19 13 10 11 11 17 21 21 21 21 17 18 17 20 23 20 10 13 17 16 15 18 19 16 14 15 16 15 14 16 19
5 7 15 11 6 6 15 9 6 7 6 4 4 7 8 9 8 5 4 5 9 14 13 14 18 21 18 20 21 18 19 20 23 21 23 26 31 32 32 31 29 25 17 13 13 14 15 14 13 13 13 12 12 16
7 7 8 9 11 5 7 7 8 6 4 5 9 11 10 8 12 7 6 17 14 9 4 6 11 18 18 23 24 25 21 14 5 11 11 8 8 9 16 19 20 21 19 16 13 10 9 10 12 11 12 12 14 18
7 7 10 8 7 9 7 7 6 9 4 7 6 5 7 7 11 26 21 15 7 9 14 17 18 10 8 8 10 14 19 22 22 14 9 9 7 11 9 8 11 15 16 15 11 8 8 9 10 11 13 15 15 15
4 6 5 9 14 14 14 3 1 1 2 4 4 8 16 13 11 21 23 24 22 22 17 13 13 17 9 10 11 11 10 17 27 33 33 23 14 10 10 7 9 13 16 15 14 14 15 13 11 11 12 13 15 16
6 9 9 11 14 7 2 4 3 5 5 4 8 5 2 3 13 13 26 22 15 12 19 19 13 13 24 30 26 23 27 28 24 24 22 26 23 19 13 10 12 16 16 15 16 16 17 14 12 12 13 15 16 18
3 3 2 5 2 5 4 3 4 5 3 5 6 9 12 11 18 17 14 21 25 22 23 29 30 30 29 28 26 27 29 30 27 25 24 22 25 23 20 18 18 17 18 18 17 17 17 16 15 16 16 18 19 20
Wind_Direction
273 281 288 294 297 303 305 306 309 317 321 324 333 346 348 352 3 15 322 8 15 286 274 224 241 210 187 214 254 107 221 186 191 236 247 237 249 202 265 246 204 196 196 196 207 219 253 148 133 212 88 125 136 214
268 274 275 284 293 298 303 301 303 307 306 307 312 322 331 342 346 4 317 333 315 247 286 238 245 252 263 282 231 185 314 189 238 249 264 303 248 228 266 271 199 243 220 264 206 225 208 187 229 216 326 301 276 282
275 274 270 274 280 283 295 303 303 297 299 296 295 300 307 321 330 345 314 320 325 279 275 246 237 238 239 233 229 245 214 235 212 39 306 284 262 278 252 241 256 228 251 240 263 249 258 255 244 251 265 273 282 271
267 267 271 278 278 280 278 285 299 298 296 296 289 285 287 298 311 314 297 290 297 296 283 266 233 245 222 225 228 239 291 123 91 225 242 246 242 230 259 275 277 247 176 235 253 266 274 270 263 269 261 246 246 262
273 272 275 282 283 285 283 282 297 298 298 293 286 274 272 284 298 302 287 273 238 221 292 291 301 219 238 219 211 211 232 241 247 228 216 238 256 279 252 265 259 226 233 225 242 246 250 280 249 166 203 226 253 268
268 273 276 275 274 279 279 284 292 295 294 293 288 268 255 265 286 317 278 282 205 193 284 297 86 156 108 133 180 183 199 220 226 241 260 245 51 259 266 254 249 231 225 231 242 248 284 277 320 245 254 267 261 255
277 276 278 279 276 274 276 284 289 285 289 294 293 270 246 244 241 215 295 330 170 171 240 293 267 147 152 142 148 146 169 206 253 237 233 250 193 223 258 255 237 263 240 243 244 258 267 253 254 274 251 243 266 276
276 270 271 275 277 279 281 280 276 278 285 290 292 286 237 223 249 262 244 237 193 199 197 256 266 254 178 171 172 162 170 192 209 252 176 209 154 234 254 244 258 253 278 257 236 235 247 298 317 255 247 269 274 268
276 266 269 274 278 280 280 280 272 275 292 295 292 210 159 197 220 262 249 202 202 213 232 203 248 277 160 127 117 170 200 215 177 240 228 201 207 228 236 248 250 249 227 245 231 232 242 246 262 265 267 261 254 259
260 264 268 266 267 279 285 285 279 263 276 278 188 173 218 209 215 169 293 191 181 219 231 234 232 248 176 175 188 185 200 232 226 214 158 234 254 260 255 250 250 240 229 201 160 224 213 241 240 248 239 238 237 240
252 253 261 264 257 272 276 281 298 287 184 190 207 189 123 139 133 238 239 214 186 236 213 234 238 219 186 176 205 225 216 220 241 164 204 243 262 253 276 256 256 244 216 206 220 191 208 225 225 251 235 224 220 217
253 254 255 256 255 260 262 260 250 204 222 225 158 125 148 212 230 224 201 180 222 243 198 236 202 210 160 225 210 183 227 226 266 137 229 248 255 262 274 269 274 258 218 199 207 226 226 228 235 243 247 243 230 220
252 256 260 255 252 251 253 245 226 236 220 162 222 172 181 183 236 221 193 178 215 201 181 180 176 171 178 228 215 185 218 226 104 229 252 241 292 287 292 274 225 173 167 180 188 200 210 215 213 218 230 239 235 209
249 250 252 256 255 249 243 238 220 181 174 211 186 225 217 210 234 204 202 189 145 127 147 170 138 210 140 184 207 237 216 226 240 231 233 268 299 310 304 220 201 202 200 192 196 194 203 204 215 223 228 229 202 201
246 247 247 248 244 250 241 233 216 208 187 221 204 222 222 237 252 173 87 164 170 155 143 126 109 230 161 233 205 201 217 239 230 236 249 271 311 309 295 238 227 227 204 211 196 196 207 210 214 230 230 224 212 203
245 248 245 242 239 240 234 231 237 211 231 201 231 242 235 236 227 186 187 212 166 161 115 99 166 220 222 212 182 210 209 229 236 219 235 291 288 273 278 240 225 230 232 226 212 214 211 208 202 208 218 217 210 205
235 230 233 235 234 235 234 223 205 193 229 228 222 224 247 269 244 211 192 207 157 146 199 193 205 217 122 233 239 210 219 236 240 248 255 234 261 282 277 256 237 207 232 226 213 211 216 225 218 206 212 214 218 217
226 227 226 236 229 215 218 213 214 212 222 236 240 241 233 244 248 249 236 150 168 194 164 224 180 204 212 222 237 238 244 261 260 260 271 277 259 232 238 267 254 222 215 221 221 220 201 191 203 222 216 207 214 216
225 223 221 212 202 194 181 215 205 254 224 233 240 245 254 262 257 261 256 197 205 184 170 179 232 230 242 246 253 262 266 265 267 276 246 251 249 255 261 244 240 240 233 227 206 213 221 218 226 218 201 189 213 209
228 224 224 227 214 196 201 211 196 226 240 246 246 245 243 246 252 250 238 209 195 190 210 223 241 242 242 242 238 249 261 270 267 275 278 274 273 263 250 248 245 242 240 247 233 218 208 212 224 223 213 205 199 224
225 228 229 225 219 204 207 207 211 230 238 234 249 242 239 236 242 238 233 199 200 204 235 236 245 247 246 254 262 264 262 261 266 264 269 278 280 282 258 237 238 245 237 236 219 219 222 220 225 217 214 213 224 228
217 215 211 211 225 215 212 190 238 173 208 237 221 216 248 247 240 227 174 198 219 228 230 242 247 250 255 257 257 261 263 266 266 272 274 268 268 271 268 267 258 251 245 237 235 241 238 230 225 212 212 224 220 217
208 200 193 187 213 213 222 157 202 197 234 228 217 243 242 238 227 143 226 225 238 234 238 242 247 253 255 262 270 270 264 262 266 263 263 258 258 262 266 268 261 252 254 254 248 244 239 244 250 235 221 212 206 209
199 187 196 219 192 206 152 199 205 217 225 229 236 238 241 244 197 221 251 247 248 252 243 242 246 253 254 255 258 262 265 260 258 259 256 262 266 265 262 265 266 256 247 254 255 252 246 244 231 221 207 200 201 202
226 195 209 203 181 190 192 186 196 219 230 224 223 232 230 156 223 230 242 256 251 257 255 247 240 242 245 258 265 263 266 251 252 260 262 257 259 267 268 265 265 262 254 236 240 247 254 249 220 206 197 192 194 197
221 200 224 185 186 198 188 215 214 221 229 217 221 250 219 208 220 234 244 253 252 253 251 242 240 247 245 242 255 264 265 256 249 254 256 248 255 257 261 264 265 263 249 238 237 251 253 236 202 201 206 206 206 197
197 205 196 207 203 177 205 239 240 217 189 205 203 179 194 227 232 242 251 236 246 244 240 242 235 235 242 254 254 256 259 249 239 251 271 266 261 255 247 244 251 260 255 242 237 233 237 226 216 216 217 205 204 202
212 196 211 211 211 222 235 239 183 210 228 217 152 188 200 208 231 235 209 272 260 256 269 265 248 237 235 244 255 258 263 262 254 254 264 274 275 270 261 254 251 256 251 238 231 238 236 226 215 211 207 198 192 190
218 211 207 226 213 193 207 210 227 225 195 177 226 238 242 243 260 258 257 268 281 283 267 266 267 267 258 264 261 258 253 245 222 250 251 260 277 270 257 259 257 250 240 226 223 226 229 222 217 209 194 179 172 168
211 200 220 203 198 221 221 190 232 244 215 229 247 275 265 264 258 266 257 257 251 249 250 252 264 237 259 262 272 268 248 233 221 225 239 231 238 251 243 241 228 221 210 201 178 153 143 149 150 146 149 144 145 145
163 186 234 226 234 239 241 246 8 197 204 214 213 238 251 270 272 259 245 249 249 256 262 263 261 247 242 256 257 263 275 253 246 240 234 237 226 225 260 240 212 195 188 181 166 153 152 152 153 153 152 148 156 149
178 199 218 234 245 224 148 188 209 213 208 207 237 205 269 254 260 266 253 251 242 248 253 258 258 257 247 254 263 248 249 259 264 263 256 235 229 225 229 204 182 182 179 176 164 160 166 156 153 153 150 147 148 151
221 195 223 245 235 212 173 167 225 250 218 239 238 233 239 241 259 265 258 243 240 251 257 259 259 261 260 257 253 253 260 266 268 265 259 248 224 207 189 184 173 176 178 166 165 172 166 164 150 150 148 150 153 152
Height
856 857 856 854 854 854 853 852 850 847 845 845 844 843 842 840 836 836 837 836 836 828 819 819 817 815 816 815 809 814 815 816 817 812 801 791 794 785 792 774 778 779 785 793 789 785 773 741 756 752 734 737 742 744
852 853 853 853 851 850 851 850 848 846 845 843 842 842 842 841 839 836 836 836 835 834 820 817 815 813 814 812 809 810 806 807 804 805 800 795 794 788 782 775 768 775 758 754 757 745 732 738 729 734 737 739 741 743
848 849 849 848 849 848 846 848 846 845 843 842 841 840 840 840 839 836 836 835 834 831 817 814 808 809 809 810 812 809 803 804 806 806 800 797 797 783 780 766 764 756 757 760 750 729 730 732 733 732 735 738 738 739
843 844 845 844 844 844 843 844 842 842 841 839 839 838 838 837 837 836 834 833 834 834 826 804 805 807 806 807 809 811 810 810 810 810 803 796 791 781 775 762 757 752 754 750 740 729 728 724 722 722 724 729 735 736
840 841 840 840 839 840 841 840 839 837 838 837 836 836 836 836 836 834 831 829 831 834 824 809 805 804 805 806 807 809 812 813 811 808 804 798 787 787 775 768 746 740 729 737 725 717 719 716 721 725 727 729 729 731
834 836 834 836 835 835 836 836 837 835 834 834 833 832 832 834 834 834 830 828 826 830 831 815 806 804 804 805 808 808 809 810 809 806 801 793 790 788 775 752 717 716 718 717 713 714 716 717 724 723 725 726 727 730
828 829 829 832 831 831 830 831 832 832 831 830 829 828 829 830 831 833 832 831 829 829 829 818 799 803 804 804 806 808 811 810 811 806 800 792 793 796 777 746 703 706 711 712 713 715 714 715 718 720 721 725 726 726
825 825 824 828 827 829 826 827 827 828 828 827 826 825 825 826 829 827 823 826 828 829 830 821 799 799 803 800 799 805 804 808 806 800 798 796 794 791 763 702 705 705 709 708 710 712 712 715 719 721 722 723 723 722
821 823 825 822 823 826 824 824 824 824 825 824 822 821 823 826 826 823 822 822 824 828 820 816 801 784 801 796 800 805 800 800 799 798 793 790 777 764 705 705 705 704 706 706 706 709 712 716 719 719 719 720 721 720
816 821 822 819 818 821 822 822 821 820 822 820 821 822 821 821 820 822 821 822 822 820 816 805 794 789 796 800 798 797 798 789 787 782 789 785 754 714 701 698 699 700 702 707 714 715 714 716 716 714 716 716 717 718
811 813 816 817 814 816 819 819 818 817 818 819 819 821 822 821 821 818 813 816 812 807 801 791 786 780 789 788 788 793 788 786 784 769 779 763 739 699 692 690 689 688 692 698 702 704 707 708 711 712 713 713 713 714
805 808 807 813 809 811 815 814 816 815 815 818 820 821 823 822 819 812 801 802 804 792 783 786 784 785 788 786 780 789 785 792 780 781 776 755 705 692 692 688 687 687 685 691 696 701 704 706 708 710 711 711 711 711
799 801 802 806 803 807 811 809 811 813 813 819 821 820 818 814 809 794 783 789 788 778 781 786 786 783 790 789 780 784 785 781 779 778 760 718 684 689 689 690 689 688 687 692 695 698 701 702 705 706 707 707 709 710
793 795 796 799 799 802 805 806 807 810 812 818 815 811 806 787 783 769 767 766 769 774 780 780 782 781 781 784 778 781 770 779 769 763 733 697 687 688 688 686 691 689 689 691 694 696 698 699 701 701 701 703 704 706
786 789 790 791 791 797 799 800 802 808 808 809 804 790 780 765 762 764 769 772 774 772 776 782 785 784 782 782 779 777 780 768 750 722 703 692 692 694 691 688 688 687 688 689 690 692 694 696 698 698 699 699 701 702
780 784 781 785 785 787 792 795 798 800 798 794 788 774 762 764 759 767 768 768 773 774 776 776 774 776 769 765 768 762 754 739 709 712 700 692 691 690 687 686 685 685 686 686 687 689 690 691 690 691 694 696 697 698
772 773 775 777 778 780 787 791 790 790 788 775 762 755 752 751 748 748 756 757 764 770 770 772 768 762 769 764 758 742 732 702 691 695 693 689 689 688 686 682 682 679 682 681 682 684 685 687 688 689 688 690 692 693
763 762 767 771 774 776 777 782 782 773 766 762 756 744 745 740 742 743 742 753 760 759 760 756 753 757 750 744 730 717 709 697 696 694 690 686 683 678 680 682 678 674 673 674 675 677 678 680 682 681 681 683 687 688
750 757 761 763 767 770 769 770 772 759 750 745 738 740 742 736 736 735 738 741 746 747 749 752 745 733 718 708 704 699 695 689 687 680 681 677 677 673 670 670 671 670 667 665 666 669 671 673 673 673 673 676 680 680
744 749 751 754 759 759 758 757 755 750 739 733 734 734 733 728 728 731 731 735 741 745 741 733 718 707 697 689 686 683 680 678 676 673 669 669 668 666 667 666 664 659 660 663 661 661 662 664 666 667 667 667 670 672
736 737 742 746 747 746 746 740 740 736 729 727 723 723 722 719 721 721 723 725 729 724 714 701 693 685 677 675 673 673 671 669 665 664 662 660 658 658 657 654 654 654 653 652 650 649 652 653 650 654 657 657 658 659
723 729 733 736 734 731 727 728 728 724 728 721 722 720 714 709 707 709 712 714 707 698 691 683 677 672 669 671 666 663 663 659 656 656 656 656 656 651 646 644 645 644 642 641 640 640 639 638 640 641 642 645 646 649
719 721 723 725 725 720 712 717 720 716 716 709 713 710 703 700 698 703 701 695 682 673 669 669 662 663 666 657 655 651 649 649 649 647 643 640 641 638 635 634 634 632 630 628 630 630 628 625 628 631 633 634 637 639
710 711 710 707 705 702 706 708 707 705 701 701 701 699 687 686 691 692 681 671 662 654 653 651 657 653 650 649 644 638 632 642 636 631 628 631 629 625 625 622 622 620 620 620 621 620 620 618 619 621 622 624 628 631
699 694 696 688 691 695 696 694 695 692 688 684 686 682 678 686 682 676 665 649 639 642 643 641 644 642 639 632 628 625 622 627 624 619 620 622 616 613 614 614 612 611 611 611 611 612 612 612 612 613 615 617 620 624
681 680 677 673 677 681 679 679 679 677 674 677 675 670 673 676 672 659 640 630 633 631 628 628 628 626 626 623 618 615 612 616 615 612 608 609 608 608 607 606 605 602 602 602 601 604 604 605 606 607 608 610 613 617
665 665 666 663 662 665 667 665 664 663 672 671 661 674 671 665 652 630 617 624 621 614 615 612 614 615 613 610 608 606 605 606 606 602 600 599 599 598 598 597 594 591 592 591 591 595 597 598 600 601 602 604 606 609
651 650 654 655 660 656 654 654 665 666 658 656 655 660 657 646 626 615 616 612 610 610 609 607 607 606 604 602 600 600 597 597 596 594 592 591 589 587 586 585 584 584 585 585 586 588 590 593 595 598 599 600 603 607
644 643 645 649 647 656 652 650 642 639 639 643 634 632 629 619 610 611 610 607 605 604 605 602 596 595 594 594 592 591 590 591 594 592 589 587 582 578 575 574 575 576 578 581 582 582 585 588 592 594 597 600 603 606
633 632 633 637 644 637 629 632 628 625 628 626 623 622 618 609 606 605 603 601 602 599 593 589 587 588 587 587 582 579 578 579 579 581 578 573 571 571 572 570 570 572 575 578 578 580 584 588 593 595 598 601 603 606
622 627 629 623 620 616 615 619 623 623 623 621 618 616 601 595 594 592 591 589 587 584 582 578 577 576 577 575 572 570 569 566 564 564 564 564 564 567 569 567 568 570 573 575 576 579 585 590 593 596 598 600 603 606
619 618 615 617 610 611 625 622 618 619 614 617 603 612 608 605 589 572 574 578 576 572 564 567 564 559 563 559 558 557 558 557 556 555 556 558 560 559 563 564 565 568 571 574 577 580 585 588 593 596 599 601 604 608
607 610 612 607 612 609 616 618 617 612 611 603 597 591 588 587 578 549 558 559 558 556 553 549 548 546 545 547 547 546 547 546 546 546 547 548 550 553 553 558 561 566 570 574 577 581 585 589 592 595 599 603 607 611